TimeCDT,TemperatureF,Dew PointF,Humidity,Sea Level PressureIn,VisibilityMPH,Wind Direction,Wind SpeedMPH,Gust SpeedMPH,PrecipitationIn,Events,Conditions,WindDirDegrees,DateUTC
12:15 AM,57.6,53.6,87,30.03,10.0,NW,5.8,-,N/A,,Clear,320,2013-09-20 05:15:00
12:35 AM,57.4,53.6,87,30.04,10.0,WNW,5.8,-,N/A,,Scattered Clouds,300,2013-09-20 05:35:00
12:55 AM,57.2,53.6,88,30.04,10.0,NW,9.2,-,N/A,,Scattered Clouds,320,2013-09-20 05:55:00
1:15 AM,57.2,53.6,88,30.03,10.0,NW,9.2,-,N/A,,Clear,310,2013-09-20 06:15:00
1:35 AM,57.2,53.6,88,30.03,10.0,NW,10.4,-,N/A,,Clear,310,2013-09-20 06:35:00
1:55 AM,56.7,53.2,88,30.04,10.0,NW,9.2,-,N/A,,Clear,310,2013-09-20 06:55:00
2:15 AM,56.5,53.1,88,30.04,10.0,NW,9.2,-,N/A,,Clear,320,2013-09-20 07:15:00
2:35 AM,56.3,52.7,88,30.04,10.0,NW,10.4,-,N/A,,Clear,320,2013-09-20 07:35:00
2:55 AM,55.9,52.5,88,30.04,10.0,NW,9.2,-,N/A,,Clear,320,2013-09-20 07:55:00
3:15 AM,55.4,52.2,89,30.04,10.0,NW,9.2,-,N/A,,Clear,320,2013-09-20 08:15:00
3:35 AM,55.0,51.8,89,30.04,10.0,NNW,8.1,-,N/A,,Clear,330,2013-09-20 08:35:00
3:55 AM,54.5,51.1,88,30.04,10.0,NNW,6.9,-,N/A,,Clear,330,2013-09-20 08:55:00
4:15 AM,54.1,50.5,88,30.05,10.0,NNW,6.9,-,N/A,,Clear,330,2013-09-20 09:15:00
4:35 AM,53.8,50.0,87,30.05,10.0,NNW,9.2,-,N/A,,Clear,330,2013-09-20 09:35:00
4:55 AM,53.2,49.5,87,30.06,10.0,NNW,5.8,-,N/A,,Clear,330,2013-09-20 09:55:00
5:15 AM,51.8,49.3,91,30.07,10.0,NW,4.6,-,N/A,,Clear,310,2013-09-20 10:15:00
5:35 AM,51.1,48.9,92,30.07,10.0,NW,4.6,-,N/A,,Clear,310,2013-09-20 10:35:00
5:55 AM,50.4,48.4,93,30.08,10.0,NNW,3.5,-,N/A,,Clear,330,2013-09-20 10:55:00
6:15 AM,50.0,48.2,94,30.08,10.0,NW,4.6,-,N/A,,Clear,310,2013-09-20 11:15:00
6:35 AM,49.1,46.8,92,30.09,10.0,NW,5.8,-,N/A,,Clear,310,2013-09-20 11:35:00
6:55 AM,49.1,47.5,94,30.10,10.0,WNW,4.6,-,N/A,,Clear,300,2013-09-20 11:55:00
7:15 AM,49.1,47.1,93,30.10,10.0,NW,8.1,-,N/A,,Clear,320,2013-09-20 12:15:00
7:35 AM,48.4,46.4,93,30.10,10.0,NW,4.6,-,N/A,,Clear,320,2013-09-20 12:35:00
7:55 AM,49.8,46.9,90,30.12,10.0,WNW,3.5,-,N/A,,Clear,300,2013-09-20 12:55:00
8:15 AM,50.5,48.2,92,30.12,10.0,West,3.5,-,N/A,,Clear,260,2013-09-20 13:15:00
8:35 AM,51.6,48.4,89,30.12,10.0,Calm,Calm,-,N/A,,Clear,0,2013-09-20 13:35:00
8:55 AM,53.8,47.8,80,30.12,10.0,NNW,5.8,-,N/A,,Clear,330,2013-09-20 13:55:00
9:15 AM,55.8,47.1,73,30.12,10.0,NNW,8.1,-,N/A,,Clear,330,2013-09-20 14:15:00
9:35 AM,57.0,45.9,66,30.13,10.0,NNW,10.4,-,N/A,,Clear,340,2013-09-20 14:35:00
9:55 AM,58.3,46.6,65,30.13,10.0,NNW,10.4,16.1,N/A,,Clear,340,2013-09-20 14:55:00
10:15 AM,58.8,46.4,63,30.13,10.0,NNW,12.7,16.1,N/A,,Clear,330,2013-09-20 15:15:00
10:35 AM,60.4,44.8,56,30.13,10.0,NNW,10.4,20.7,N/A,,Clear,340,2013-09-20 15:35:00
10:55 AM,61.5,44.6,54,30.13,10.0,NNW,13.8,-,N/A,,Clear,330,2013-09-20 15:55:00
11:15 AM,62.2,44.4,52,30.12,10.0,North,15.0,19.6,N/A,,Clear,350,2013-09-20 16:15:00
11:35 AM,63.0,45.1,52,30.12,10.0,North,13.8,19.6,N/A,,Clear,350,2013-09-20 16:35:00
11:55 AM,64.6,45.7,50,30.11,10.0,NNW,15.0,-,N/A,,Clear,340,2013-09-20 16:55:00
12:15 PM,65.5,43.2,44,30.10,10.0,NNW,16.1,20.7,N/A,,Clear,340,2013-09-20 17:15:00
12:35 PM,65.7,44.2,46,30.09,10.0,North,15.0,19.6,N/A,,Clear,350,2013-09-20 17:35:00
12:55 PM,67.1,44.1,43,30.08,10.0,North,15.0,20.7,N/A,,Clear,350,2013-09-20 17:55:00
1:15 PM,67.3,43.5,42,30.08,10.0,NNW,15.0,20.7,N/A,,Clear,330,2013-09-20 18:15:00
1:35 PM,68.4,44.8,43,30.07,10.0,NNW,15.0,24.2,N/A,,Clear,340,2013-09-20 18:35:00
1:55 PM,69.3,44.6,41,30.06,10.0,NNW,16.1,23.0,N/A,,Clear,330,2013-09-20 18:55:00
2:15 PM,69.1,44.4,41,30.05,10.0,NNW,15.0,18.4,N/A,,Clear,340,2013-09-20 19:15:00
2:35 PM,69.8,45.0,41,30.04,10.0,NNW,13.8,20.7,N/A,,Clear,340,2013-09-20 19:35:00
2:55 PM,70.2,43.2,38,30.03,10.0,NW,11.5,18.4,N/A,,Clear,320,2013-09-20 19:55:00
3:15 PM,70.2,43.3,38,30.03,10.0,NW,9.2,19.6,N/A,,Clear,310,2013-09-20 20:15:00
3:35 PM,70.7,42.4,36,30.02,10.0,North,16.1,19.6,N/A,,Clear,350,2013-09-20 20:35:00
3:55 PM,71.1,43.5,37,30.02,10.0,NNW,11.5,-,N/A,,Clear,330,2013-09-20 20:55:00
4:15 PM,71.4,43.3,36,30.01,10.0,NNW,11.5,18.4,N/A,,Clear,330,2013-09-20 21:15:00
4:35 PM,71.6,42.6,35,30.00,10.0,NNW,10.4,20.7,N/A,,Clear,340,2013-09-20 21:35:00
4:55 PM,71.8,43.9,37,30.00,10.0,NNW,12.7,-,N/A,,Clear,340,2013-09-20 21:55:00
5:15 PM,71.6,43.9,37,30.00,10.0,NW,12.7,-,N/A,,Clear,320,2013-09-20 22:15:00
5:35 PM,71.2,43.9,37,29.99,10.0,North,10.4,-,N/A,,Clear,350,2013-09-20 22:35:00
5:55 PM,71.1,44.4,38,30.00,10.0,NNW,9.2,-,N/A,,Clear,340,2013-09-20 22:55:00
6:15 PM,70.2,45.1,41,29.99,10.0,NNW,9.2,-,N/A,,Clear,330,2013-09-20 23:15:00
6:35 PM,68.7,46.6,45,29.99,10.0,NNW,5.8,-,N/A,,Clear,330,2013-09-20 23:35:00
6:55 PM,66.0,47.8,52,29.99,10.0,NNW,5.8,-,N/A,,Clear,340,2013-09-20 23:55:00
7:15 PM,63.5,49.5,60,30.00,10.0,North,4.6,-,N/A,,Clear,350,2013-09-21 00:15:00
7:35 PM,61.7,48.4,62,30.00,10.0,North,4.6,-,N/A,,Clear,350,2013-09-21 00:35:00
7:55 PM,59.5,50.2,71,30.00,7.0,Calm,Calm,-,N/A,,Clear,0,2013-09-21 00:55:00
8:15 PM,59.4,49.5,70,30.01,10.0,Calm,Calm,-,N/A,,Clear,0,2013-09-21 01:15:00
8:35 PM,57.4,49.5,75,30.01,10.0,Calm,Calm,-,N/A,,Clear,0,2013-09-21 01:35:00
8:55 PM,55.4,49.1,79,30.02,10.0,Calm,Calm,-,N/A,,Clear,0,2013-09-21 01:55:00
9:15 PM,56.3,49.8,79,30.02,10.0,Calm,Calm,-,N/A,,Clear,0,2013-09-21 02:15:00
9:35 PM,56.1,48.7,76,30.02,10.0,Calm,Calm,-,N/A,,Clear,0,2013-09-21 02:35:00
9:55 PM,55.8,49.5,79,30.02,5.0,Calm,Calm,-,N/A,,Haze,0,2013-09-21 02:55:00
10:15 PM,54.1,49.8,85,30.02,10.0,Calm,Calm,-,N/A,,Clear,0,2013-09-21 03:15:00
10:35 PM,54.0,49.5,85,30.03,10.0,Calm,Calm,-,N/A,,Clear,0,2013-09-21 03:35:00
10:55 PM,52.7,49.5,89,30.03,10.0,Calm,Calm,-,N/A,,Clear,0,2013-09-21 03:55:00
11:15 PM,51.4,49.1,92,30.02,10.0,Calm,Calm,-,N/A,,Clear,0,2013-09-21 04:15:00
11:35 PM,51.3,48.6,90,30.02,10.0,Calm,Calm,-,N/A,,Clear,0,2013-09-21 04:35:00
11:55 PM,50.7,48.7,93,30.03,10.0,Calm,Calm,-,N/A,,Clear,0,2013-09-21 04:55:00